UAE777 KBDL-CYYZ

Flight info

Callsign UAE777
Flight time N/A
Altitude 40000
Route CTR DCT CAM Q822 GONZZ DCT WOZEE LINNG3
Aircraft A333/H-SDE3GHIJ2J3J5M1RVWXY/LB2D1

Departure

Time 2026-04-29 01:56
Airport Bradley International Airport (KBDL)

Arrival

Time N/A
Airport Toronto Pearson International Airport (CYYZ)
Time Latitude Longitude Altitude Speed Heading
2026-04-29 01:41 41.93563 -72.70093 195 ft 0 kts 178°
2026-04-29 01:49 41.93562 -72.70093 195 ft 1 kts 178°
2026-04-29 01:49 41.93525 -72.70091 194 ft 5 kts 170°
2026-04-29 01:49 41.93508 -72.70039 194 ft 9 kts 95°
2026-04-29 01:49 41.93507 -72.69929 193 ft 15 kts 89°
2026-04-29 01:50 41.93502 -72.69861 191 ft 8 kts 120°
2026-04-29 01:50 41.93443 -72.69826 189 ft 13 kts 170°
2026-04-29 01:50 41.93334 -72.69805 187 ft 16 kts 152°
2026-04-29 01:50 41.93288 -72.69754 186 ft 0 kts 134°
2026-04-29 01:51 41.93258 -72.69714 186 ft 6 kts 134°
2026-04-29 01:51 41.93181 -72.69609 182 ft 22 kts 134°
2026-04-29 01:51 41.93145 -72.69460 177 ft 17 kts 56°
2026-04-29 01:51 41.93241 -72.69325 179 ft 22 kts 44°
2026-04-29 01:52 41.93365 -72.69162 182 ft 25 kts 44°
2026-04-29 01:52 41.93487 -72.69002 187 ft 23 kts 44°
2026-04-29 01:52 41.93602 -72.68851 187 ft 22 kts 44°
2026-04-29 01:52 41.93714 -72.68704 190 ft 24 kts 44°
2026-04-29 01:53 41.93866 -72.68515 190 ft 26 kts 42°
2026-04-29 01:53 41.94010 -72.68341 187 ft 29 kts 42°
2026-04-29 01:53 41.94167 -72.68149 184 ft 31 kts 42°
2026-04-29 01:53 41.94329 -72.67950 184 ft 31 kts 44°
2026-04-29 01:54 41.94481 -72.67748 184 ft 30 kts 45°
2026-04-29 01:54 41.94631 -72.67554 182 ft 30 kts 44°
2026-04-29 01:54 41.94785 -72.67350 178 ft 30 kts 44°
2026-04-29 01:54 41.94917 -72.67178 173 ft 15 kts 44°
2026-04-29 01:55 41.95016 -72.67175 171 ft 16 kts 321°
2026-04-29 01:55 41.95032 -72.67261 173 ft 3 kts 228°
2026-04-29 01:55 41.94972 -72.67339 175 ft 39 kts 223°
2026-04-29 01:55 41.94548 -72.67896 184 ft 129 kts 223°
2026-04-29 01:56 41.93720 -72.68986 256 ft 195 kts 221°
2026-04-29 01:56 41.92760 -72.70216 1262 ft 197 kts 220°
2026-04-29 01:56 41.91701 -72.71538 2145 ft 224 kts 221°
2026-04-29 01:56 41.90688 -72.73295 3057 ft 261 kts 244°
2026-04-29 01:57 41.90290 -72.75794 3849 ft 298 kts 263°
2026-04-29 01:57 41.90216 -72.78645 3839 ft 311 kts 267°
2026-04-29 01:57 41.89890 -72.81507 3976 ft 317 kts 259°
2026-04-29 01:57 41.89760 -72.84454 3943 ft 317 kts 267°
2026-04-29 01:58 41.89687 -72.87407 3948 ft 316 kts 267°
2026-04-29 01:58 41.89618 -72.90456 4089 ft 339 kts 267°
2026-04-29 01:58 41.89540 -72.93616 5069 ft 341 kts 267°
2026-04-29 01:58 41.89451 -72.96778 6011 ft 345 kts 267°
2026-04-29 01:59 41.89349 -73.00015 6822 ft 352 kts 267°
2026-04-29 01:59 41.89246 -73.03266 7788 ft 354 kts 267°
2026-04-29 01:59 41.89143 -73.06536 8682 ft 356 kts 267°
2026-04-29 01:59 41.89039 -73.09848 9556 ft 358 kts 268°
2026-04-29 02:00 41.88926 -73.13200 10386 ft 361 kts 268°
2026-04-29 02:00 41.88952 -73.16579 11039 ft 368 kts 279°
2026-04-29 02:00 41.89794 -73.19781 11754 ft 371 kts 300°
2026-04-29 02:00 41.91448 -73.22387 12650 ft 369 kts 320°
2026-04-29 02:01 41.93667 -73.24081 13327 ft 372 kts 340°
2026-04-29 02:01 41.96195 -73.24636 14042 ft 376 kts 359°
2026-04-29 02:01 41.98781 -73.24041 14667 ft 383 kts 17°
2026-04-29 02:01 42.01128 -73.22270 15282 ft 392 kts 36°
2026-04-29 02:02 42.03228 -73.19961 15837 ft 394 kts 33°
2026-04-29 02:02 42.05456 -73.17783 16377 ft 399 kts 32°
2026-04-29 02:02 42.07728 -73.15598 16946 ft 402 kts 32°
2026-04-29 02:02 42.10000 -73.13410 17506 ft 405 kts 32°
2026-04-29 02:03 42.12286 -73.11212 18047 ft 408 kts 32°
2026-04-29 02:03 42.14613 -73.08973 18522 ft 413 kts 32°
2026-04-29 02:03 42.16965 -73.06707 18967 ft 418 kts 32°
2026-04-29 02:03 42.19315 -73.04440 19391 ft 423 kts 32°
2026-04-29 02:04 42.21723 -73.02113 19793 ft 429 kts 32°
2026-04-29 02:04 42.24181 -72.99738 20148 ft 435 kts 33°
2026-04-29 02:04 42.26750 -72.97696 20553 ft 433 kts 20°
2026-04-29 02:04 42.29670 -72.96735 20967 ft 437 kts
2026-04-29 02:05 42.32698 -72.96853 21818 ft 436 kts 347°
2026-04-29 02:05 42.35549 -72.98099 22639 ft 435 kts 330°
2026-04-29 02:05 42.38290 -72.99951 23374 ft 456 kts 333°
2026-04-29 02:05 42.41238 -73.01635 24741 ft 465 kts 334°
2026-04-29 02:06 42.44185 -73.03291 26346 ft 467 kts 334°
2026-04-29 02:06 42.47204 -73.04986 27476 ft 479 kts 334°
2026-04-29 02:06 42.50305 -73.06719 28592 ft 489 kts 334°
2026-04-29 02:06 42.53462 -73.08482 29730 ft 497 kts 334°
2026-04-29 02:07 42.56678 -73.10283 30722 ft 505 kts 334°
2026-04-29 02:07 42.59941 -73.12111 31578 ft 513 kts 334°
2026-04-29 02:07 42.63225 -73.13952 32817 ft 510 kts 334°
2026-04-29 02:07 42.66465 -73.15768 34049 ft 507 kts 334°
2026-04-29 02:08 42.69712 -73.17595 34964 ft 504 kts 334°
2026-04-29 02:08 42.72901 -73.19389 35944 ft 498 kts 334°
2026-04-29 02:08 42.76098 -73.21190 36795 ft 496 kts 334°
2026-04-29 02:08 42.79246 -73.22965 37646 ft 492 kts 333°
2026-04-29 02:09 42.82419 -73.24757 38405 ft 489 kts 333°
2026-04-29 02:09 42.85519 -73.26507 39211 ft 485 kts 333°
2026-04-29 02:09 42.88636 -73.28271 39826 ft 484 kts 333°
2026-04-29 02:09 42.91749 -73.30035 40192 ft 484 kts 333°
2026-04-29 02:10 42.94658 -73.32226 39961 ft 461 kts 317°
2026-04-29 02:10 42.96804 -73.35271 40209 ft 441 kts 301°
2026-04-29 02:10 42.98295 -73.38934 40088 ft 439 kts 291°
2026-04-29 02:10 42.99194 -73.42853 40087 ft 434 kts 278°
2026-04-29 02:11 42.99779 -73.51045 39810 ft 440 kts 272°
2026-04-29 02:11 42.99921 -73.55225 39135 ft 439 kts 271°
2026-04-29 02:11 43.00032 -73.59320 38339 ft 437 kts 271°
2026-04-29 02:12 43.00136 -73.63458 37251 ft 443 kts 271°
2026-04-29 02:12 43.00236 -73.67653 35921 ft 451 kts 270°
2026-04-29 02:12 43.00330 -73.71877 36277 ft 438 kts 270°
2026-04-29 02:12 43.00422 -73.76046 36074 ft 443 kts 270°
2026-04-29 02:13 43.00605 -73.84454 35998 ft 443 kts 270°
2026-04-29 02:13 43.00693 -73.88601 36158 ft 439 kts 270°
2026-04-29 02:13 43.00779 -73.92811 36071 ft 446 kts 270°
2026-04-29 02:14 43.00950 -74.01308 36093 ft 450 kts 270°
2026-04-29 02:14 43.01117 -74.09823 36064 ft 454 kts 270°
2026-04-29 02:15 43.01278 -74.18424 36048 ft 453 kts 270°
2026-04-29 02:15 43.01464 -74.26975 36074 ft 453 kts 272°
2026-04-29 02:16 43.01870 -74.35596 36058 ft 454 kts 272°
2026-04-29 02:16 43.02257 -74.44173 36055 ft 455 kts 272°
2026-04-29 02:17 43.02635 -74.52760 36051 ft 454 kts 272°
2026-04-29 02:17 43.03008 -74.61313 36048 ft 450 kts 272°
2026-04-29 02:18 43.03370 -74.69833 36069 ft 449 kts 272°
2026-04-29 02:18 43.03727 -74.78326 36054 ft 449 kts 272°
2026-04-29 02:19 43.04075 -74.86764 36045 ft 447 kts 272°
2026-04-29 02:19 43.04417 -74.95216 36039 ft 447 kts 272°
2026-04-29 02:20 43.04786 -75.04572 36051 ft 447 kts 272°
2026-04-29 02:20 43.05193 -75.15018 36043 ft 445 kts 272°
2026-04-29 02:21 43.05586 -75.25406 36033 ft 447 kts 272°
2026-04-29 02:21 43.05922 -75.35882 36045 ft 447 kts 271°
2026-04-29 02:22 43.06214 -75.46313 36037 ft 445 kts 271°
2026-04-29 02:22 43.06498 -75.56708 36018 ft 445 kts 271°
2026-04-29 02:23 43.06773 -75.67200 36020 ft 445 kts 271°
2026-04-29 02:23 43.07037 -75.77624 36034 ft 446 kts 271°
2026-04-29 02:24 43.07293 -75.88033 36023 ft 444 kts 271°
2026-04-29 02:25 43.07657 -76.03682 36029 ft 444 kts 271°